Valparaiso, IN

2:18 PM CST on January 19, 2018 (GMT -0600)
Porter County Municipal

Weather History for KVPZ - December, 2012

Change the Weather History Date:

Friday, December 21, 2012

  Actual Average Record
Temperature  
Mean Temperature 30 °F 26 °F  
Max Temperature 34 °F 33 °F 54 °F (2015)
Min Temperature 26 °F 20 °F -5 °F (2008)
Degree Days  
Heating Degree Days 35 39  
Month to date heating degree days 514 746  
Since 1 July heating degree days 1818 2004  
Cooling Degree Days 0 0  
Month to date cooling degree days 0 0  
Year to date cooling degree days 1054 713  
Moisture  
Dew Point 25 °F    
Average Humidity 82    
Maximum Humidity 96    
Minimum Humidity 72    
Precipitation  
Precipitation T in 0.07 in 0.51 in (2015)
Month to date precipitation 2.06 1.54  
Year to date precipitation 26.25 36.87  
Sea Level Pressure  
Sea Level Pressure 29.75 in    
Wind  
Wind Speed 19 mph (WNW)    
Max Wind Speed 31 mph    
Max Gust Speed 45 mph    
Visibility 5 miles    
Events Snow    
T = Trace of Precipitation, MM = Missing Value Source: NWS Daily Summary

Daily Weather History Graph

Daily Weather History Graph

Search for Another Location

Airport or City:

Trip Planner

Search our weather history database for the weather conditions in past years. The results will help you decide how hot, cold, wet, or windy it might be!

Date:

Astronomy

Dec. 21, 2012 Rise Set
Actual Time 7:11 AM CST 4:21 PM CST
Civil Twilight 6:39 AM CST 4:53 PM CST
Nautical Twilight 6:04 AM CST 5:28 PM CST
Astronomical Twilight 5:31 AM CST 6:01 PM CST
Moon 12:11 PM CST (12/21) 12:54 AM CST (12/21)
Length of Visible Light 10h 13m
Length of Day
9h 10m
Waxing Gibbous, 65% of the Moon is Illuminated
Dec 21
Waxing Gibbous
Dec 28
Full
Jan 4
Last Quarter
Jan 11
New
Jan 18
First Quarter

Hourly Weather History & Observations

Time (CST) Temp. Windchill Dew Point Humidity Pressure Visibility Wind Dir Wind Speed Gust Speed Precip Events Conditions
12:53 AM 33.1 °F 21.2 °F 32.0 °F 96% 29.41 in 1.2 mi WNW 20.7 mph 35.7 mph 0.01 in Snow Light Snow
1:21 AM 33.8 °F 21.3 °F 30.2 °F 87% 29.42 in 0.8 mi WNW 24.2 mph 35.7 mph 0.00 in Snow Light Snow
1:48 AM 33.8 °F 21.9 °F 30.2 °F 87% 29.44 in 1.0 mi WNW 21.9 mph 35.7 mph 0.00 in   Mist
1:53 AM 33.1 °F 20.9 °F 30.0 °F 89% 29.45 in 1.0 mi WNW 21.9 mph 35.7 mph 0.00 in Snow Light Snow
2:03 AM 32.0 °F 19.2 °F 30.2 °F 93% 29.45 in 0.8 mi WNW 23.0 mph 36.8 mph 0.00 in Snow Light Snow
2:38 AM 32.0 °F 19.2 °F 30.2 °F 93% 29.49 in - WNW 23.0 mph 39.1 mph 0.00 in   Unknown
2:48 AM 32.0 °F 19.5 °F 30.2 °F 93% 29.50 in 0.8 mi WNW 21.9 mph 36.8 mph 0.00 in Snow Light Snow
2:53 AM 32.0 °F 19.2 °F 30.0 °F 92% 29.52 in 0.8 mi WNW 23.0 mph 36.8 mph 0.00 in Snow Light Snow
3:02 AM 32.0 °F 18.9 °F 30.2 °F 93% 29.51 in 1.0 mi WNW 24.2 mph 33.4 mph 0.00 in Snow Light Snow
3:09 AM 32.0 °F 19.5 °F 30.2 °F 93% 29.51 in 1.0 mi WNW 21.9 mph 34.5 mph 0.00 in Snow Light Snow
3:33 AM 32.0 °F 18.6 °F 28.4 °F 87% 29.53 in 1.0 mi WNW 25.3 mph 34.5 mph 0.00 in Snow Light Snow
3:40 AM 32.0 °F 19.5 °F 28.4 °F 87% 29.53 in 1.2 mi WNW 21.9 mph 40.3 mph 0.00 in Snow Light Snow
3:53 AM 32.0 °F 19.2 °F 28.9 °F 88% 29.56 in 1.0 mi WNW 23.0 mph 36.8 mph 0.00 in Snow Light Snow
4:19 AM 32.0 °F 19.8 °F 28.4 °F 87% 29.57 in 2.5 mi WNW 20.7 mph 35.7 mph 0.00 in   Overcast
4:21 AM 32.0 °F 19.5 °F 28.4 °F 87% 29.57 in 3.0 mi WNW 21.9 mph 35.7 mph 0.00 in   Overcast
4:53 AM 32.0 °F 19.8 °F 27.0 °F 82% 29.60 in 3.0 mi WNW 20.7 mph 40.3 mph 0.00 in   Haze
5:53 AM 30.9 °F 18.4 °F 25.0 °F 79% 29.65 in 3.0 mi NW 20.7 mph 44.9 mph 0.00 in Snow Light Snow
6:53 AM 30.9 °F 17.8 °F 24.1 °F 76% 29.70 in 4.0 mi WNW 23.0 mph 38.0 mph 0.00 in   Haze
7:53 AM 30.9 °F 17.2 °F 23.0 °F 72% 29.74 in 7.0 mi WNW 25.3 mph 38.0 mph 0.00 in   Overcast
8:53 AM 30.0 °F 17.5 °F 24.1 °F 79% 29.78 in 4.0 mi NW 19.6 mph 35.7 mph 0.00 in Snow Light Snow
9:53 AM 30.9 °F 17.8 °F 23.0 °F 72% 29.82 in 5.0 mi NW 23.0 mph 41.4 mph 0.00 in   Haze
10:53 AM 30.0 °F 16.6 °F 23.0 °F 75% 29.84 in 9.0 mi NW 23.0 mph 39.1 mph N/A   Overcast
11:53 AM 30.0 °F 17.9 °F 23.0 °F 75% 29.86 in 10.0 mi NW 18.4 mph 33.4 mph N/A   Overcast
12:53 PM 30.0 °F 18.3 °F 23.0 °F 75% 29.89 in 10.0 mi NW 17.3 mph 31.1 mph N/A   Overcast
1:53 PM 28.9 °F 15.8 °F 21.9 °F 75% 29.93 in 10.0 mi NW 20.7 mph 33.4 mph N/A   Overcast
2:53 PM 28.9 °F 17.3 °F 21.9 °F 75% 29.97 in 10.0 mi NW 16.1 mph 31.1 mph N/A   Overcast
3:53 PM 28.0 °F 14.6 °F 21.0 °F 75% 30.00 in 10.0 mi NW 20.7 mph 33.4 mph N/A   Overcast
4:53 PM 27.0 °F 14.7 °F 19.9 °F 75% 30.04 in 10.0 mi NW 16.1 mph 29.9 mph N/A   Overcast
5:53 PM 27.0 °F 14.7 °F 19.9 °F 75% 30.07 in 10.0 mi WNW 16.1 mph 27.6 mph N/A   Overcast
6:53 PM 27.0 °F 14.3 °F 19.9 °F 75% 30.10 in 10.0 mi NW 17.3 mph 24.2 mph N/A   Overcast
7:53 PM 27.0 °F 14.7 °F 21.0 °F 78% 30.12 in 10.0 mi WNW 16.1 mph 20.7 mph N/A   Overcast
8:53 PM 27.0 °F 16.7 °F 21.0 °F 78% 30.14 in 10.0 mi WNW 11.5 mph - N/A   Overcast
9:53 PM 27.0 °F 17.3 °F 19.9 °F 75% 30.15 in 10.0 mi NW 10.4 mph 20.7 mph N/A   Overcast
10:53 PM 26.1 °F 15.0 °F 21.0 °F 81% 30.16 in 10.0 mi NW 12.7 mph 20.7 mph N/A   Overcast
11:53 PM 26.1 °F 16.2 °F 21.0 °F 81% 30.16 in 10.0 mi NW 10.4 mph 18.4 mph N/A   Overcast